Weather History for Laurens, SC

Change the Weather History Date:

Sunday, October 7, 2012

  Actual Average (KGSP) Record (KGSP)
Temperature  
Mean Temperature 62 °F 64 °F  
Max Temperature 69 °F 75 °F 92 °F (1884)
Min Temperature 55 °F 53 °F 38 °F (1935)
Degree Days  
Heating Degree Days 3 3  
Month to date heating degree days 17  
Since 1 July heating degree days 34  
Cooling Degree Days 0 2  
Month to date cooling degree days 20  
Year to date cooling degree days 1682  
Growing Degree Days 12 (Base 50)    
Moisture  
Dew Point 60 °F    
Average Humidity 93    
Maximum Humidity 100    
Minimum Humidity 73    
Precipitation  
Precipitation 0.00 in 0.12 in 2.77 in (1922)
Month to date precipitation 0.82  
Year to date precipitation 36.76  
Snow  
Snow 0.00 in 0.00 in 0.00 in ()
Month to date snowfall 0.0  
Since 1 July snowfall 0.0  
Since 1 September snowfall 0.0  
Snow Depth -    
Sea Level Pressure  
Sea Level Pressure 30.03 in    
Wind  
Wind Speed 5 mph (NNE)    
Max Wind Speed 12 mph    
Max Gust Speed 18 mph    
Visibility 10 miles    
Events Rain , Thunderstorm    
T = Trace of Precipitation, MM = Missing Value Source: NWS Daily Summary

Daily Weather History Graph

Daily Weather History Graph

Search for Another Location

Airport:

Trip Planner

Search our weather history database for the weather conditions in past years. The results will help you decide how hot, cold, wet, or windy it might be!

Date:

Astronomy

Oct. 07, 2012 Rise Set
Actual Time 7:27 AM EDT 7:03 PM EDT
Civil Twilight 7:02 AM EDT 7:28 PM EDT
Nautical Twilight 6:32 AM EDT 7:57 PM EDT
Astronomical Twilight 6:03 AM EDT 8:26 PM EDT
Moon No Moon Rise 1:53 PM EDT (10/7)
Length of Visible Light 12h 26m
Length of Day
11h 35m
Waning Gibbous, 56% of the Moon is Illuminated
Oct 7
Waning Gibbous
Oct 8
Last Quarter
Oct 15
New
Oct 21
First Quarter
Oct 29
Full

Hourly Weather History & Observations

Time (EDT) Temp. Dew Point Humidity Pressure Visibility Wind Dir Wind Speed Gust Speed Precip Events Conditions
12:15 AM 68.0 °F 62.6 °F 83% 29.98 in 10.0 mi NW 5.8 mph - N/A   Scattered Clouds
12:35 AM 68.0 °F 62.6 °F 83% 29.97 in 10.0 mi NNW 4.6 mph - N/A   Scattered Clouds
12:55 AM 66.2 °F 64.4 °F 94% 29.98 in 10.0 mi NNW 4.6 mph - N/A   Scattered Clouds
1:15 AM 66.2 °F 64.4 °F 94% 29.97 in 10.0 mi North 3.5 mph - N/A   Scattered Clouds
1:35 AM 64.4 °F 64.4 °F 100% 29.96 in 10.0 mi NNE 3.5 mph - N/A   Scattered Clouds
2:15 AM 64.4 °F 64.4 °F 100% 29.97 in 10.0 mi North 3.5 mph - N/A   Clear
2:35 AM 64.4 °F 64.4 °F 100% 29.97 in 7.0 mi Calm Calm - N/A   Scattered Clouds
2:55 AM 62.6 °F 62.6 °F 100% 29.97 in 7.0 mi NNW 3.5 mph - N/A   Scattered Clouds
3:15 AM 62.6 °F 62.6 °F 100% 29.97 in 7.0 mi North 3.5 mph - N/A   Mostly Cloudy
3:55 AM 64.4 °F 64.4 °F 100% 29.97 in 7.0 mi Calm Calm - N/A   Overcast
4:15 AM 64.4 °F 64.4 °F 100% 29.96 in 7.0 mi East 3.5 mph - N/A   Overcast
4:35 AM 64.4 °F 64.4 °F 100% 29.97 in 7.0 mi NNE 4.6 mph - N/A   Overcast
4:55 AM 62.6 °F 62.6 °F 100% 29.97 in 7.0 mi NNE 3.5 mph - N/A   Overcast
5:15 AM 62.6 °F 62.6 °F 100% 29.97 in 7.0 mi ENE 4.6 mph - N/A   Overcast
5:35 AM 62.6 °F 62.6 °F 100% 29.96 in 10.0 mi ENE 4.6 mph - N/A   Overcast
5:55 AM 62.6 °F 62.6 °F 100% 29.97 in 10.0 mi Calm Calm - N/A   Overcast
6:35 AM 62.6 °F 62.6 °F 100% 29.99 in 10.0 mi Calm Calm - N/A Thunderstorm Thunderstorm
6:55 AM 62.6 °F 62.6 °F 100% 30.00 in 10.0 mi Calm Calm - N/A Thunderstorm Thunderstorm
7:15 AM 62.6 °F 62.6 °F 100% 30.02 in 10.0 mi North 4.6 mph - N/A   Overcast
7:35 AM 60.8 °F 60.8 °F 100% 30.01 in 10.0 mi ENE 5.8 mph - N/A Rain Light Rain
7:55 AM 60.8 °F 60.8 °F 100% 30.01 in 7.0 mi NE 4.6 mph - N/A   Overcast
8:15 AM 60.8 °F 60.8 °F 100% 30.01 in 7.0 mi East 4.6 mph - N/A   Overcast
8:35 AM 60.8 °F 60.8 °F 100% 30.01 in 7.0 mi East 5.8 mph - N/A   Overcast
8:55 AM 60.8 °F 60.8 °F 100% 30.02 in 10.0 mi ENE 3.5 mph - N/A Thunderstorm Overcast
9:15 AM 62.6 °F 62.6 °F 100% 30.02 in 10.0 mi East 3.5 mph - N/A   Overcast
9:35 AM 62.6 °F 62.6 °F 100% 30.02 in 10.0 mi East 4.6 mph - N/A   Overcast
9:55 AM 62.6 °F 62.6 °F 100% 30.02 in 10.0 mi ENE 3.5 mph - N/A   Overcast
10:15 AM 62.6 °F 62.6 °F 100% 30.03 in 10.0 mi NNE 4.6 mph - N/A   Overcast
10:35 AM 60.8 °F 60.8 °F 100% 30.04 in 10.0 mi North 4.6 mph - N/A   Overcast
10:55 AM 62.6 °F 62.6 °F 100% 30.05 in 10.0 mi NNE 5.8 mph - N/A   Overcast
11:15 AM 60.8 °F 60.8 °F 100% 30.05 in 10.0 mi NNE 5.8 mph - N/A   Overcast
11:35 AM 60.8 °F 60.8 °F 100% 30.04 in 10.0 mi NE 3.5 mph - N/A   Overcast
11:55 AM 60.8 °F 60.8 °F 100% 30.03 in 10.0 mi ENE 6.9 mph - N/A   Overcast
12:15 PM 62.6 °F 60.8 °F 94% 30.04 in 10.0 mi North 3.5 mph - N/A   Overcast
12:55 PM 60.8 °F 60.8 °F 100% 30.04 in 10.0 mi North 4.6 mph - N/A   Overcast
1:15 PM 60.8 °F 59.0 °F 94% 30.05 in 10.0 mi NNE 5.8 mph - N/A   Overcast
1:35 PM 62.6 °F 59.0 °F 88% 30.04 in 10.0 mi North 5.8 mph - N/A   Overcast
1:55 PM 64.4 °F 59.0 °F 83% 30.02 in 10.0 mi NNE 4.6 mph - N/A   Overcast
2:15 PM 66.2 °F 60.8 °F 83% 30.01 in 10.0 mi NNW 5.8 mph - N/A   Mostly Cloudy
2:35 PM 68.0 °F 59.0 °F 73% 30.00 in 10.0 mi North 3.5 mph - N/A   Clear
2:55 PM 68.0 °F 60.8 °F 78% 30.01 in 10.0 mi NE 4.6 mph - N/A   Scattered Clouds
3:15 PM 68.0 °F 60.8 °F 78% 30.01 in 10.0 mi North 6.9 mph - N/A   Mostly Cloudy
3:35 PM 68.0 °F 60.8 °F 78% 30.01 in 10.0 mi NNE 3.5 mph - N/A   Mostly Cloudy
3:55 PM 69.8 °F 60.8 °F 73% 30.00 in 10.0 mi NE 4.6 mph - N/A   Mostly Cloudy
4:35 PM 68.0 °F 60.8 °F 78% 30.01 in 10.0 mi NNE 4.6 mph - N/A   Overcast
4:55 PM 68.0 °F 60.8 °F 78% 30.01 in 10.0 mi NNE 4.6 mph - N/A   Overcast
5:15 PM 68.0 °F 60.8 °F 78% 30.02 in 10.0 mi NNE 3.5 mph - N/A   Overcast
5:35 PM 64.4 °F 60.8 °F 88% 30.02 in 10.0 mi NNE 6.9 mph - N/A   Overcast
5:55 PM 64.4 °F 60.8 °F 88% 30.04 in 10.0 mi NNE 10.4 mph 16.1 mph N/A   Overcast
6:15 PM 62.6 °F 59.0 °F 88% 30.04 in 10.0 mi NNE 11.5 mph - N/A   Overcast
6:35 PM 60.8 °F 59.0 °F 94% 30.05 in 10.0 mi NNE 10.4 mph 18.4 mph N/A   Overcast
6:55 PM 60.8 °F 59.0 °F 94% 30.05 in 10.0 mi NE 6.9 mph - N/A   Overcast
7:15 PM 59.0 °F 59.0 °F 100% 30.06 in 10.0 mi NNE 6.9 mph - N/A   Overcast
7:35 PM 59.0 °F 55.4 °F 88% 30.08 in 10.0 mi NNE 11.5 mph 17.3 mph N/A   Overcast
7:55 PM 59.0 °F 55.4 °F 88% 30.08 in 10.0 mi NE 6.9 mph - N/A   Overcast
8:15 PM 59.0 °F 55.4 °F 88% 30.08 in 10.0 mi NE 6.9 mph 17.3 mph N/A   Overcast
8:55 PM 57.2 °F 55.4 °F 94% 30.10 in 10.0 mi NE 8.1 mph - N/A   Overcast
9:15 PM 57.2 °F 55.4 °F 94% 30.10 in 10.0 mi NE 9.2 mph - N/A   Overcast
9:55 PM 57.2 °F 53.6 °F 88% 30.12 in 10.0 mi NE 6.9 mph - N/A   Overcast
10:15 PM 57.2 °F 53.6 °F 88% 30.12 in 10.0 mi NE 5.8 mph - N/A   Overcast
10:35 PM 57.2 °F 53.6 °F 88% 30.12 in 10.0 mi ENE 8.1 mph - N/A   Overcast
10:55 PM 57.2 °F 53.6 °F 88% 30.12 in 10.0 mi NE 6.9 mph - N/A   Overcast
11:15 PM 57.2 °F 51.8 °F 82% 30.12 in 10.0 mi ENE 8.1 mph - N/A   Overcast
11:35 PM 55.4 °F 51.8 °F 88% 30.12 in 10.0 mi ENE 9.2 mph - N/A   Overcast
11:55 PM 55.4 °F 51.8 °F 88% 30.13 in 10.0 mi NE 10.4 mph - N/A   Overcast